Bettles Field, AK

3:52 PM AKST on January 22, 2017 (GMT -0900)
Bettles

Weather History for PABT - March, 2014

Change the Weather History Date:

Thursday, March 13, 2014

  Actual Average Record
Temperature  
Mean Temperature 22 °F -  
Max Temperature 34 °F 15 °F 36 °F (1981)
Min Temperature 9 °F -6 °F -52 °F (1964)
Degree Days  
Heating Degree Days 44    
Moisture  
Dew Point 13 °F    
Average Humidity 67    
Maximum Humidity 87    
Minimum Humidity 41    
Precipitation  
Precipitation 0.00 in - - ()
Snow  
Snow 0.00 in - - ()
Snow Depth 30.00 in    
Sea Level Pressure  
Sea Level Pressure 29.42 in    
Wind  
Wind Speed 6 mph (NNE)    
Max Wind Speed 14 mph    
Max Gust Speed 26 mph    
Visibility 10 miles    
Events      
Averages and records for this station are not official NWS values.
T = Trace of Precipitation, MM = Missing Value Source: NWS Daily Summary

Daily Weather History Graph

Daily Weather History Graph

Search for Another Location

Airport or City:

Trip Planner

Search our weather history database for the weather conditions in past years. The results will help you decide how hot, cold, wet, or windy it might be!

Date:

Astronomy

Mar. 13, 2014 Rise Set
Actual Time 8:33 AM AKDT 7:59 PM AKDT
Civil Twilight 7:40 AM AKDT 8:52 PM AKDT
Nautical Twilight 6:37 AM AKDT 9:56 PM AKDT
Astronomical Twilight 5:26 AM AKDT 11:08 PM AKDT
Moon 4:46 PM AKDT (3/13) 7:41 AM AKDT (3/13)
Length of Visible Light 13h 12m
Length of Day
11h 26m
Waxing Gibbous, 92% of the Moon is Illuminated
Mar 13
Waxing Gibbous
Mar 16
Full
Mar 23
Last Quarter
Mar 30
New
Apr 7
First Quarter

Hourly Weather History & Observations

Time (AKDT) Temp. Windchill Dew Point Humidity Pressure Visibility Wind Dir Wind Speed Gust Speed Precip Events Conditions
12:53 AM 10.0 °F 3.6 °F 7.0 °F 87% 29.51 in 10.0 mi NNE 3.5 mph - N/A   Scattered Clouds
1:53 AM 5.0 °F - 1.9 °F 87% 29.51 in 10.0 mi Calm Calm - N/A   Scattered Clouds
2:53 AM 10.0 °F 3.6 °F 7.0 °F 87% 29.50 in 10.0 mi NNW 3.5 mph - N/A   Scattered Clouds
3:53 AM 10.0 °F 1.8 °F 6.1 °F 84% 29.49 in 10.0 mi North 4.6 mph - N/A   Scattered Clouds
4:53 AM 12.9 °F 6.9 °F 9.0 °F 84% 29.48 in 10.0 mi North 3.5 mph - N/A   Scattered Clouds
5:53 AM 14.0 °F 5.1 °F 10.0 °F 84% 29.47 in 10.0 mi North 5.8 mph - N/A   Scattered Clouds
6:53 AM 16.0 °F 4.4 °F 10.9 °F 81% 29.46 in 10.0 mi North 9.2 mph - N/A   Scattered Clouds
7:53 AM 15.1 °F 6.4 °F 10.9 °F 84% 29.45 in 10.0 mi North 5.8 mph - N/A   Mostly Cloudy
8:53 AM 16.0 °F 4.4 °F 10.9 °F 81% 29.44 in 10.0 mi NW 9.2 mph - N/A   Mostly Cloudy
9:53 AM 19.9 °F 11.1 °F 12.0 °F 71% 29.44 in 10.0 mi North 6.9 mph - N/A   Mostly Cloudy
10:53 AM 25.0 °F 16.3 °F 12.9 °F 60% 29.42 in 10.0 mi North 8.1 mph - N/A   Mostly Cloudy
11:53 AM 28.0 °F 18.6 °F 17.1 °F 63% 29.41 in 10.0 mi NNE 10.4 mph - N/A   Mostly Cloudy
12:53 PM 30.0 °F 19.5 °F 19.0 °F 64% 29.41 in 10.0 mi NE 13.8 mph 20.7 mph N/A   Mostly Cloudy
1:53 PM 33.1 °F 25.5 °F 18.0 °F 54% 29.39 in 10.0 mi NE 9.2 mph 21.9 mph N/A   Mostly Cloudy
2:53 PM 32.0 °F 24.8 °F 17.1 °F 54% 29.40 in 10.0 mi NE 8.1 mph - N/A   Mostly Cloudy
3:53 PM 33.1 °F 25.5 °F 18.0 °F 54% 29.39 in 10.0 mi ENE 9.2 mph - N/A   Mostly Cloudy
4:53 PM 33.1 °F 26.1 °F 14.0 °F 46% 29.40 in 10.0 mi NE 8.1 mph - N/A   Mostly Cloudy
5:53 PM 33.1 °F 26.9 °F 18.0 °F 54% 29.38 in 10.0 mi NE 6.9 mph 16.1 mph N/A   Mostly Cloudy
6:53 PM 31.1 °F 23.1 °F 19.0 °F 61% 29.37 in 10.0 mi NE 9.2 mph - N/A   Mostly Cloudy
7:53 PM 30.0 °F 22.4 °F 19.0 °F 64% 29.37 in 10.0 mi NNE 8.1 mph - N/A   Scattered Clouds
8:53 PM 30.0 °F 21.7 °F 18.0 °F 61% 29.37 in 10.0 mi ENE 9.2 mph 18.4 mph N/A   Partly Cloudy
9:53 PM 30.0 °F 21.1 °F 17.1 °F 59% 29.36 in 10.0 mi NE 10.4 mph 26.5 mph N/A   Partly Cloudy
10:53 PM 28.0 °F 21.7 °F 19.0 °F 69% 29.37 in 10.0 mi NE 5.8 mph - N/A   Partly Cloudy
11:53 PM 25.0 °F 18.1 °F 8.1 °F 49% 29.37 in 10.0 mi NNE 5.8 mph - N/A   Clear